Regional Weather Roundup
Issued by NWS

Home | Current Version | Previous Version | Text Only | Print | Product List | Glossary On
Versions: 1 2 3 4 5 6 7 8 9 10 11 12 13 14 15 16 17 18 19 20 21 22 23 24 25 26 27 28 29 30 31 32 33 34 35 36 37 38 39 40 41 42 43 44 45 46 47 48 49 50
000
ASUS44 KEWX 291010
RWRTX
SOUTH TEXAS REGIONAL WEATHER ROUNDUP
NATIONAL WEATHER SERVICE AUSTIN/SAN ANTONIO TX
500 AM CDT TUE JUL 29 2014

NOTE: "FAIR" INDICATED FEW OR NO CLOUDS BELOW 12,000 FEET WITH NO
SIGNIFICANT WEATHER AND/OR OBSTRUCTIONS TO VISIBILITY.

* - THESE STATIONS ARE NOT NWS OR FAA STATIONS...AND ARE NOT SUBJECT
    TO NWS AND FAA QUALITY CONTROL.

TXZ171-172-183>190-291100-
TEXAS HILL COUNTRY AND EDWARDS PLATEAU

CITY           SKY/WX    TMP DP  RH WIND       PRES   REMARKS
JUNCTION       CLEAR     74  66  76 E3        30.12S
*LLANO         CLEAR     75  70  83 CALM      30.12F
BURNET         CLEAR     75  68  78 NE6       30.12F
*HORSESHOE BAY CLEAR     73  66  77 CALM      30.09F
*KERRVILLE     CLEAR     74  69  84 SE3       30.12S
*FREDERICKSBRG CLEAR     71  62  72 CALM      30.12S
*ROCKSPRINGS   CLEAR     73  66  78 CALM      30.16S
*BOERNE STAGE  CLEAR     70  63  78 CALM      30.12S
*CASTROVILLE   CLEAR     74  63  67 CALM      30.09R
HONDO          CLEAR     72  67  84 NE3       30.09S
*UVALDE        CLEAR     75  65  71 E7        30.08S
DEL RIO        CLEAR     82  66  58 E7        30.04S
LAUGHLIN AFB   CLEAR     79  67  66 E7        30.05F
CARRIZO SPRGS  CLEAR     75  68  78 CALM      30.03S
$$

TXZ173-191>194-202-209-217>225-228-291100-
CENTRAL AND SOUTH CENTRAL TEXAS

CITY           SKY/WX    TMP DP  RH WIND       PRES   REMARKS
GEORGETOWN     CLEAR     73  70  88 NE3       30.09S
AUSTIN/BERGSTM PTCLDY    73  70  90 CALM      30.07R
AUSTIN/MABRY   CLEAR     78  71  79 CALM      30.08S
*AUSTIN/EXEC   PTCLDY    73  72  94 N3        30.08S
*LAGO VISTA    PTCLDY    75  69  82 CALM      30.10F
SAN MARCOS     PTCLDY    75  64  69 SW5       30.09S
NEW BRAUNFELS  CLEAR     73  68  84 SW3       30.06S
RANDOLPH AFB   CLEAR     73  67  79 CALM      30.08S
PT SAN ANTONIO CLEAR     73  66  77 CALM      30.07R
SAN ANTONIO    PTCLDY    78  66  66 CALM      30.08S
STINSON FIELD  CLEAR     73  68  84 CALM      30.06R
*PLEASANTON    CLEAR     73  67  80 CALM      30.06S
*LA GRANGE     CLEAR     77  75  93 CALM      30.05R
*GIDDINGS      CLEAR     75  71  87 CALM      30.10S
*GONZALES      CLEAR     76  75  96 CALM      30.06S
$$

TXZ163>164-176>182-195>201-210>213-226-227-235-291100-
SOUTHEAST TEXAS

CITY           SKY/WX    TMP DP  RH WIND       PRES   REMARKS
COLLEGE STN    PTCLDY    77  70  79 E3        30.06S
*BRYAN         PTCLDY    74  71  91 CALM      30.07R
*CALDWELL      CLEAR     73  72  94 CALM      30.10S
*CROCKETT      PTCLDY    75  75 100 CALM      30.09S
*BRENHAM       CLEAR     76  72  85 CALM      30.07R
HUNTSVILLE     CLOUDY    74  71  91 N3        30.06S
CONROE         PTCLDY    74  72  93 CALM      30.06R
HOUSTON BUSH   MOCLDY    81  76  84 NW7       30.05R
HOUSTON HOBBY  MOCLDY    81  76  84 W6        30.04R
*HOUSTON SW AP MOCLDY   N/A N/A N/A CALM      30.05R
PEARLAND       MOCLDY    80  76  87 NW3       30.05R
HOUSTON HOOKS  MOCLDY    77  76  96 CALM      30.05R
ELLINGTON FLD  NOT AVBL
SUGAR LAND     MOCLDY    79  76  90 NW5       30.04S
*HOUSTON EXEC  MOCLDY    77  77 100 CALM      30.06S
*CLEVELAND MUN MOCLDY    74  73  96 CALM      30.06S
*WHARTON       PTCLDY    74  73  97 CALM      30.06S FOG
$$

TXZ214>216-236>238-291100-
THE UPPER TEXAS COAST

CITY           SKY/WX    TMP DP  RH WIND       PRES   REMARKS
*ORANGE        MOCLDY    77  73  86 CALM      30.05R
PORT ARTHUR    MOCLDY    80  73  79 NE8       30.03R
GALVESTON      MOCLDY    81  78  91 W7        30.05R
ANGLETON       MOCLDY    76  75  97 CALM      30.04R FOG
*BAY CITY      PTCLDY    77  77 100 CALM      30.05R
PALACIOS       PTCLDY    79  76  90 NW6       30.05R
$$

TXZ229>234-239>247-291100-
TEXAS COASTAL BEND AND RIO GRANDE PLAINS

CITY           SKY/WX    TMP DP  RH WIND       PRES   REMARKS
VICTORIA       CLEAR     78  75  90 CALM      30.06R
*BEEVILLE      CLEAR     74  74 100 S3        30.05S
ROCKPORT       CLEAR     77  75  93 SW3       30.03F
*PORT ARANSAS  CLEAR     77  76  97 S5        30.04S
*PORT LAVACA   CLEAR     74  73  96 CALM      30.05R FOG
*INGLESIDE     CLEAR     80  76  87 S3        30.04S
CORPUS CHRISTI PTCLDY    72  71  97 S6        30.04S
CORPUS NAS     CLEAR     78  76  93 S6        30.03F
*ROBSTOWN      NOT AVBL
ALICE          FOG       71  71 100 CALM      30.04S VSB 1/4
KINGSVILLE NAS PTCLDY    72  72 100 CALM      30.04S FOG
COTULLA        CLEAR     78  71  79 SE7       30.04S
*FAITH RANCH   CLEAR     81  68  65 SE8       30.05S
LAREDO         CLEAR     80  70  71 SE7       30.06S
$$

TXZ248>255-291100-
DEEP SOUTH TEXAS

CITY           SKY/WX    TMP DP  RH WIND       PRES   REMARKS
BROWNSVILLE    CLEAR     76  74  93 S6        30.03S
PORT ISABEL    CLEAR     78  74  87 S5        30.02S
*SOUTH PADRE     N/A     79  77  94 S6        30.03S
HARLINGEN      CLEAR     73  73 100 CALM      30.02S FOG
*HEBBRONVILLE  CLEAR     74  71  90 SE6       30.06S
MCALLEN        CLEAR     77  75  93 SE6       30.03S
*WESLACO       CLEAR     77  73  87 S6        30.02F
FALFURRIAS     CLEAR     60  32  35 CALM      30.03S
EDINBURG       CLEAR     75  72  89 CALM      30.04R
*ZAPATA        NOT AVBL
$$

TXZ213>215-236>238-242>244-246-247-251-254-255-291100-
CMAN STATIONS

STATION/POSITION TIME  TEMP    WIND        PRES    WAVE
                       AIR SEA DIR/SP/G            HT/PER
                 (UTC) (F)     (DEG/KT/KT) (MB)    (FT/S)
SABINE PASS      1000   82 88  310/  4/  7 1016.9
SEA RIM ST PARK  1000   80     320/  6/  8 1017.4
NORTH JETTY/GLS  1000   82 91  330/  9/ 10   N/A
EAGLE POINT      1000   80 87  320/  3/  4 1017.2
MORGANS POINT    1000   82 91  290/  3/  5 1017.1
MISSION/ARANSAS  0900   80     200/ 11     1018.0
PORT O`CONNOR    1000          220/ 10/ 12   N/A
PORT ARANSAS     1000   79 82  190/  8/  9 1017.6
MALAQUITE BEACH  1000   78 75  170/  4/  4 1016.7
BAFFIN BAY       1000   80 79  200/  7/  9 1017.0
PORT ISABEL      1000   80 82  190/  4/  5 1017.3
$$

GMZ080-GMZ150>470-291100-
OFFSHORE BUOY REPORTS

STATION/POSITION TIME  TEMP    WIND        PRES    WAVE
                       AIR SEA DIR/SP/G            HT/PER
                 (UTC) (F)     (DEG/KT/KT) (MB)    (FT/S)
90 E PT ARANSAS  1000   83 84  230/ 12/ 14 1017.2    2/ 6
35 NE PT MANSFLD 1000   82 84  190/ 12/ 14 1016.9    2/ 4
200 E PT ISABEL  1000   83 86  230/  6/  8 1017.1    1/ 8
$$


USA.gov is the U.S. government's official web portal to all federal, state and local government web resources and services.